TimeEDT,TemperatureF,Dew PointF,Humidity,Sea Level PressureIn,VisibilityMPH,Wind Direction,Wind SpeedMPH,Gust SpeedMPH,PrecipitationIn,Events,Conditions,WindDirDegrees,DateUTC
12:23 AM,71.6,68.0,88,30.06,7.0,East,6.9,-,N/A,,Overcast,80,2012-09-04 04:23:00
12:44 AM,71.6,69.8,94,30.06,6.0,East,5.8,-,N/A,,Overcast,80,2012-09-04 04:44:00
12:53 AM,71.1,69.1,93,30.05,6.0,East,4.6,-,N/A,,Overcast,80,2012-09-04 04:53:00
1:02 AM,71.6,69.8,94,30.05,1.8,East,6.9,-,0.14,Rain,Heavy Rain,90,2012-09-04 05:02:00
1:22 AM,71.6,69.8,94,30.04,3.0,East,6.9,-,0.30,Rain,Light Rain,80,2012-09-04 05:22:00
1:44 AM,71.6,69.8,94,30.04,1.8,East,3.5,-,0.45,Rain,Heavy Rain,100,2012-09-04 05:44:00
1:53 AM,71.1,69.1,93,30.02,1.0,East,5.8,-,0.66,Rain,Heavy Rain,90,2012-09-04 05:53:00
2:13 AM,71.6,69.8,94,30.03,0.8,ESE,6.9,-,0.43,Rain,Heavy Rain,110,2012-09-04 06:13:00
2:18 AM,71.6,69.8,94,30.03,1.0,ESE,6.9,-,0.58,Rain,Heavy Rain,110,2012-09-04 06:18:00
2:45 AM,71.6,69.8,94,30.03,2.0,ESE,3.5,-,1.02,Rain,Rain,110,2012-09-04 06:45:00
2:53 AM,72.0,70.0,93,30.02,3.0,SE,3.5,-,1.04,Rain,Rain,130,2012-09-04 06:53:00
3:02 AM,71.6,69.8,94,30.03,2.0,ESE,3.5,-,0.08,Rain,Heavy Rain,120,2012-09-04 07:02:00
3:09 AM,71.6,69.8,94,30.03,1.8,Calm,Calm,-,0.16,Rain,Heavy Rain,0,2012-09-04 07:09:00
3:23 AM,71.6,69.8,94,30.02,2.0,ENE,5.8,-,0.36,Rain,Heavy Rain,60,2012-09-04 07:23:00
3:34 AM,71.6,69.8,94,30.02,3.0,East,3.5,-,0.39,Rain,Rain,100,2012-09-04 07:34:00
3:42 AM,71.6,69.8,94,30.02,3.0,East,5.8,-,0.42,Rain,Rain,100,2012-09-04 07:42:00
3:53 AM,72.0,70.0,93,30.01,4.0,East,3.5,-,0.44,Rain,Light Rain,80,2012-09-04 07:53:00
4:06 AM,71.6,69.8,94,30.01,2.5,East,3.5,-,0.02,Rain,Rain,100,2012-09-04 08:06:00
4:28 AM,71.6,69.8,94,30.01,2.0,ENE,4.6,-,0.08,Rain,Rain,70,2012-09-04 08:28:00
4:53 AM,71.1,70.0,96,30.00,1.8,East,4.6,-,0.18,Rain,Heavy Rain,90,2012-09-04 08:53:00
5:06 AM,71.6,69.8,94,30.00,1.8,East,5.8,-,0.06,Rain,Heavy Rain,90,2012-09-04 09:06:00
5:17 AM,71.6,69.8,94,30.00,2.0,East,4.6,-,0.07,Rain,Rain,90,2012-09-04 09:17:00
5:50 AM,71.6,69.8,94,30.00,3.0,Calm,Calm,-,0.09,Rain,Light Rain,0,2012-09-04 09:50:00
5:53 AM,71.1,70.0,96,29.99,3.0,Calm,Calm,-,0.09,Rain,Light Rain,0,2012-09-04 09:53:00
6:53 AM,72.0,71.1,97,30.00,3.0,NE,4.6,-,0.01,Rain,Light Rain,40,2012-09-04 10:53:00
7:03 AM,71.6,71.6,100,30.01,2.5,Calm,Calm,-,0.00,,Overcast,0,2012-09-04 11:03:00
7:12 AM,71.6,71.6,100,30.01,2.5,Calm,Calm,-,0.00,,Overcast,0,2012-09-04 11:12:00
7:53 AM,73.0,71.1,93,30.01,2.0,East,3.5,-,0.00,,Overcast,90,2012-09-04 11:53:00
8:19 AM,73.4,71.6,94,30.01,2.5,ESE,5.8,-,N/A,,Overcast,110,2012-09-04 12:19:00
8:27 AM,73.4,71.6,94,30.01,3.0,ESE,4.6,-,N/A,,Overcast,110,2012-09-04 12:27:00
8:37 AM,73.4,71.6,94,30.01,3.0,ESE,4.6,-,N/A,,Overcast,120,2012-09-04 12:37:00
8:53 AM,73.9,72.0,93,30.00,3.0,SE,4.6,-,N/A,,Overcast,130,2012-09-04 12:53:00
9:53 AM,75.9,72.0,87,30.00,4.0,SE,5.8,-,N/A,,Overcast,140,2012-09-04 13:53:00
10:37 AM,77.0,71.6,83,30.01,4.0,South,6.9,-,N/A,,Haze,170,2012-09-04 14:37:00
10:53 AM,77.0,72.0,84,29.99,5.0,SSE,5.8,-,N/A,,Haze,160,2012-09-04 14:53:00
11:01 AM,78.8,73.4,83,30.00,5.0,SSE,5.8,-,N/A,,Haze,160,2012-09-04 15:01:00
11:12 AM,78.8,71.6,78,29.99,6.0,South,5.8,-,N/A,,Haze,170,2012-09-04 15:12:00
11:19 AM,78.8,73.4,83,29.99,6.0,South,5.8,-,N/A,,Haze,180,2012-09-04 15:19:00
11:53 AM,78.1,71.1,79,29.98,6.0,South,8.1,-,N/A,,Haze,170,2012-09-04 15:53:00
12:30 PM,80.6,71.6,74,29.97,6.0,South,5.8,-,N/A,,Haze,170,2012-09-04 16:30:00
12:53 PM,82.0,73.0,74,29.95,7.0,South,5.8,-,N/A,,Partly Cloudy,190,2012-09-04 16:53:00
1:53 PM,84.9,72.0,65,29.92,10.0,SSW,9.2,-,N/A,,Scattered Clouds,210,2012-09-04 17:53:00
2:53 PM,84.0,71.1,65,29.89,10.0,SW,8.1,-,N/A,,Mostly Cloudy,220,2012-09-04 18:53:00
3:38 PM,82.4,71.6,70,29.88,10.0,South,10.4,-,0.03,,Mostly Cloudy,180,2012-09-04 19:38:00
3:53 PM,82.0,72.0,71,29.87,10.0,South,12.7,-,0.04,,Overcast,180,2012-09-04 19:53:00
3:57 PM,80.6,71.6,74,29.88,1.5,SSW,23.0,29.9,0.09,Rain,Light Rain,200,2012-09-04 19:57:00
4:02 PM,75.2,69.8,83,29.87,0.8,SSE,18.4,29.9,0.24,Rain,Heavy Rain,160,2012-09-04 20:02:00
4:08 PM,75.2,69.8,83,29.88,7.0,South,10.4,25.3,0.24,Rain,Light Rain,170,2012-09-04 20:08:00
4:53 PM,78.1,73.0,84,29.86,8.0,SE,3.5,-,0.25,Rain,Light Rain,130,2012-09-04 20:53:00
6:53 PM,78.1,73.9,87,29.86,7.0,SSE,5.8,-,N/A,,Scattered Clouds,150,2012-09-04 22:53:00
7:53 PM,78.1,73.0,84,29.85,9.0,South,6.9,-,N/A,,Partly Cloudy,170,2012-09-04 23:53:00
8:53 PM,78.1,72.0,81,29.86,10.0,South,6.9,-,N/A,,Mostly Cloudy,190,2012-09-05 00:53:00
9:53 PM,78.1,72.0,81,29.86,9.0,South,8.1,-,N/A,,Mostly Cloudy,190,2012-09-05 01:53:00
11:53 PM,78.1,71.1,79,29.83,10.0,SSW,6.9,-,N/A,,Scattered Clouds,200,2012-09-05 03:53:00